Hourly Data Report for October 25, 2021

POINT ATKINSON
BRITISH COLUMBIA
Current Station Operator: ECCC - MSC

49°19'49.300" N
123°15'53.000" W
14.00 m
1106200
71037
WSB

Download Data

Hourly Data (October 2021)
Hourly Data Report for October 25, 2021
TIME
LST
Temp Definition
°C
Dew Point Definition
°C
Rel Hum Definition
%
Precip. Amount Definition
mm

Wind Dir Definition
10's deg

Wind Spd Definition
km/h
Visibility Definition
km
Stn Press Definition
kPa
Hmdx Definition


Wind Chill Definition


Weather Definition


00:00 12.9 4.7 58 LegendMM 9 56   98.30     LegendNANA
01:00 12.5 5.0 60 LegendMM 9 58   98.31     LegendNANA
02:00 12.8 4.6 57 LegendMM 9 62   98.32     LegendNANA
03:00 12.3 5.0 61 LegendMM 9 57   98.39     LegendNANA
04:00 11.2 5.3 67 LegendMM 10 55   98.51     LegendNANA
05:00 10.9 6.2 73 LegendMM 9 51   98.59     LegendNANA
06:00 11.5 5.9 69 LegendMM 10 52   98.60     LegendNANA
07:00 12.0 4.8 61 LegendMM 9 58   98.62     LegendNANA
08:00 11.9 5.1 63 LegendMM 10 54   98.66     LegendNANA
09:00 11.5 5.9 69 LegendMM 10 52   98.76     LegendNANA
10:00 11.4 6.0 69 LegendMM 9 50   98.77     LegendNANA
11:00 11.0 6.6 74 LegendMM 9 51   98.80     LegendNANA
12:00 10.7 7.2 79 LegendMM 9 49   98.84     LegendNANA
13:00 10.8 7.5 80 LegendMM 10 49   98.85     LegendNANA
14:00 11.5 7.6 77 LegendMM 10 45   99.04     LegendNANA
15:00 11.1 8.1 82 LegendMM 10 38   99.14     LegendNANA
16:00 11.3 8.2 81 LegendMM 10 42   99.18     LegendNANA
17:00 11.5 8.1 80 LegendMM 11 45   99.29     LegendNANA
18:00 11.1 8.5 84 LegendMM 10 41   99.36     LegendNANA
19:00 11.3 8.7 84 LegendMM 11 31   99.50     LegendNANA
20:00 11.3 8.4 83 LegendMM 10 30   99.60     LegendNANA
21:00 11.3 8.4 83 LegendMM 9 34   99.73     LegendNANA
22:00 11.4 7.9 79 LegendMM 9 32   99.81     LegendNANA
23:00 11.4 7.5 77 LegendMM 9 28   99.89     LegendNANA

Notes on Data Quality.

Legend

  • E = Estimated
  • M = Missing
  • NA = Not Available*
  • [empty] = Indicates an unobserved value
Date modified: